�������l�o���
Date,Time,MP-1(��Sv/h),MP-2(��Sv/h),MP-3(��Sv/h),MP-4(��Sv/h),MP-5(��Sv/h),MP-6(��Sv/h),MP-7(��Sv/h),MP-8(��Sv/h),����,����(m/s),���J
2018/02/14,00:00,0.884,1.477,0.921,1.729,1.192,0.484,0.864,0.835,��쐼,4.2,��
2018/02/14,00:10,0.883,1.477,0.923,1.728,1.192,0.483,0.865,0.834,��,3.7,��
2018/02/14,00:20,0.885,1.479,0.921,1.725,1.191,0.484,0.864,0.834,��,2.8,��
2018/02/14,00:30,0.883,1.479,0.920,1.728,1.189,0.483,0.866,0.833,��,3.8,��
2018/02/14,00:40,0.883,1.480,0.922,1.727,1.191,0.485,0.863,0.833,��,4.1,��
2018/02/14,00:50,0.882,1.480,0.920,1.729,1.191,0.486,0.864,0.834,��,4.4,��
2018/02/14,01:00,0.881,1.478,0.920,1.728,1.190,0.485,0.864,0.834,��쓌,5.0,��
2018/02/14,01:10,0.882,1.477,0.920,1.727,1.192,0.485,0.864,0.832,��,5.4,��
2018/02/14,01:20,0.884,1.481,0.921,1.727,1.194,0.483,0.865,0.833,��,5.2,��
2018/02/14,01:30,0.883,1.479,0.921,1.727,1.193,0.484,0.861,0.835,��,5.6,��
2018/02/14,01:40,0.884,1.478,0.922,1.728,1.191,0.486,0.865,0.833,��,5.9,��
2018/02/14,01:50,0.883,1.481,0.923,1.726,1.191,0.486,0.864,0.834,��,6.0,��
2018/02/14,02:00,0.881,1.482,0.924,1.726,1.193,0.486,0.865,0.834,��,5.0,��
2018/02/14,02:10,0.883,1.482,0.923,1.727,1.193,0.486,0.864,0.834,��,6.3,��
2018/02/14,02:20,0.881,1.480,0.920,1.728,1.192,0.484,0.866,0.836,��,5.1,��
2018/02/14,02:30,0.884,1.480,0.920,1.730,1.194,0.486,0.864,0.835,��,5.4,��
2018/02/14,02:40,0.883,1.481,0.920,1.729,1.193,0.486,0.864,0.834,��,5.2,��
2018/02/14,02:50,0.884,1.478,0.921,1.729,1.191,0.484,0.866,0.834,��,4.6,��
2018/02/14,03:00,0.882,1.482,0.921,1.727,1.194,0.484,0.865,0.833,��,6.0,��
2018/02/14,03:10,0.885,1.480,0.921,1.729,1.192,0.485,0.864,0.834,��,6.7,��
2018/02/14,03:20,0.882,1.478,0.919,1.727,1.193,0.484,0.864,0.834,��,6.5,��
2018/02/14,03:30,0.885,1.478,0.921,1.728,1.191,0.484,0.864,0.832,��,6.5,��
2018/02/14,03:40,0.883,1.481,0.921,1.727,1.190,0.486,0.863,0.833,��,6.6,��
2018/02/14,03:50,0.882,1.481,0.921,1.726,1.193,0.487,0.864,0.833,��,6.8,��
2018/02/14,04:00,0.883,1.480,0.918,1.729,1.191,0.484,0.864,0.834,��쐼,6.0,��
2018/02/14,04:10,0.884,1.480,0.920,1.729,1.193,0.484,0.864,0.833,��쐼,5.3,��
2018/02/14,04:20,0.883,1.478,0.921,1.724,1.192,0.485,0.864,0.834,��쐼,4.5,��
2018/02/14,04:30,0.883,1.480,0.921,1.728,1.193,0.484,0.862,0.833,��,6.0,��
2018/02/14,04:40,0.883,1.478,0.923,1.725,1.191,0.485,0.864,0.832,��,6.7,��
2018/02/14,04:50,0.882,1.480,0.921,1.727,1.193,0.485,0.865,0.832,��쐼,6.6,��
2018/02/14,05:00,0.884,1.478,0.921,1.726,1.192,0.485,0.864,0.835,��쐼,7.0,��
2018/02/14,05:10,0.885,1.480,0.922,1.727,1.191,0.484,0.866,0.835,��쐼,6.6,��
2018/02/14,05:20,0.883,1.479,0.921,1.726,1.192,0.483,0.866,0.833,��,6.7,��
2018/02/14,05:30,0.884,1.479,0.918,1.725,1.191,0.484,0.865,0.835,��쐼,8.1,��
2018/02/14,05:40,0.882,1.480,0.920,1.729,1.193,0.485,0.864,0.833,��쐼,7.8,��
2018/02/14,05:50,0.883,1.480,0.920,1.728,1.192,0.485,0.866,0.835,��쐼,7.5,��
2018/02/14,06:00,0.881,1.480,0.921,1.728,1.190,0.487,0.864,0.836,��쐼,6.7,��
2018/02/14,06:10,0.882,1.478,0.920,1.730,1.192,0.485,0.864,0.833,��쐼,6.3,��
2018/02/14,06:20,0.882,1.479,0.919,1.728,1.188,0.483,0.864,0.833,��쐼,7.0,��
2018/02/14,06:30,0.882,1.481,0.921,1.729,1.188,0.486,0.865,0.834,��쐼,7.1,��
2018/02/14,06:40,0.881,1.477,0.920,1.728,1.190,0.485,0.865,0.834,��,6.8,��
2018/02/14,06:50,0.884,1.481,0.920,1.729,1.189,0.484,0.865,0.834,��,6.8,��
2018/02/14,07:00,0.882,1.479,0.923,1.729,1.191,0.484,0.866,0.833,��,6.3,��
2018/02/14,07:10,0.882,1.480,0.923,1.729,1.194,0.485,0.865,0.834,��,5.6,��
2018/02/14,07:20,0.884,1.479,0.924,1.727,1.192,0.486,0.865,0.835,��,6.2,��
2018/02/14,07:30,0.885,1.479,0.923,1.729,1.193,0.485,0.865,0.834,��쐼,6.3,��
2018/02/14,07:40,0.884,1.478,0.924,1.728,1.193,0.485,0.864,0.835,��,5.5,��
2018/02/14,07:50,0.882,1.479,0.923,1.727,1.190,0.485,0.865,0.834,��,5.9,��
2018/02/14,08:00,0.882,1.482,0.922,1.729,1.194,0.486,0.866,0.835,��,5.7,��
2018/02/14,08:10,0.886,1.477,0.925,1.729,1.196,0.486,0.867,0.833,��,5.2,��
2018/02/14,08:20,0.885,1.480,0.926,1.729,1.194,0.486,0.866,0.834,��쐼,4.9,��
2018/02/14,08:30,0.885,1.478,0.924,1.729,1.192,0.486,0.866,0.835,��,4.3,��
2018/02/14,08:40,0.886,1.479,0.924,1.728,1.193,0.485,0.865,0.835,��,5.7,��
2018/02/14,08:50,0.887,1.479,0.922,1.731,1.194,0.485,0.868,0.837,��,5.2,��
2018/02/14,09:00,0.889,1.483,0.924,1.731,1.193,0.486,0.868,0.835,��,5.7,��
2018/02/14,09:10,0.887,1.485,0.924,1.729,1.194,0.486,0.866,0.834,��쐼,2.6,��
2018/02/14,09:20,0.888,1.481,0.924,1.731,1.193,0.488,0.867,0.836,��쐼,4.1,��
2018/02/14,09:30,0.888,1.482,0.923,1.732,1.195,0.487,0.865,0.834,��쐼,2.6,��
2018/02/14,09:40,0.886,1.480,0.925,1.732,1.195,0.488,0.866,0.836,��쐼,2.5,��
2018/02/14,09:50,0.888,1.481,0.926,1.729,1.195,0.487,0.863,0.834,��쐼,3.9,��
2018/02/14,10:00,0.889,1.479,0.924,1.731,1.196,0.488,0.865,0.835,��쐼,3.6,��
2018/02/14,10:10,0.888,1.482,0.925,1.732,1.197,0.490,0.864,0.836,��쐼,4.8,��
2018/02/14,10:20,0.890,1.480,0.925,1.733,1.196,0.487,0.868,0.835,���쐼,4.3,�L
2018/02/14,10:30,0.890,1.481,0.923,1.732,1.198,0.489,0.865,0.836,�쐼,5.0,�L
2018/02/14,10:40,0.888,1.482,0.922,1.733,1.199,0.489,0.866,0.836,��쐼,7.6,��
2018/02/14,10:50,0.890,1.484,0.924,1.732,1.197,0.488,0.866,0.837,��쐼,6.6,��
2018/02/14,11:00,0.889,-,0.926,1.735,1.197,0.487,0.869,0.834,��쐼,6.5,��
2018/02/14,11:10,0.890,-,0.926,1.736,1.199,0.489,0.867,0.839,��쐼,4.9,��
2018/02/14,11:20,0.891,-,0.925,1.734,1.199,0.488,0.866,0.836,�쐼,4.6,��
2018/02/14,11:30,0.892,-,0.924,1.736,1.194,0.487,0.868,0.837,�쐼,5.6,��
2018/02/14,11:40,0.892,-,0.928,1.736,1.197,0.487,0.868,0.837,��쐼,6.4,��
2018/02/14,11:50,0.892,-,0.926,1.736,1.200,0.490,0.867,0.835,�쐼,5.0,��
2018/02/14,12:00,0.890,-,0.927,1.735,1.197,0.490,0.866,0.836,��쐼,4.4,��
2018/02/14,12:10,0.891,-,0.927,1.735,1.201,0.489,0.867,0.838,��쓌,8.8,��
2018/02/14,12:20,0.892,-,0.929,1.734,1.200,0.489,0.867,0.837,��쓌,8.6,��
2018/02/14,12:30,0.891,-,0.926,1.736,1.197,0.490,0.868,0.837,��쓌,7.8,��
2018/02/14,12:40,0.893,-,0.929,1.736,1.199,0.491,0.866,0.837,��쓌,8.3,��
2018/02/14,12:50,0.891,-,0.930,1.736,1.198,0.490,0.867,0.838,��쓌,7.7,��
2018/02/14,13:00,0.890,-,0.928,1.736,1.198,0.489,0.867,0.837,��쓌,9.8,��
2018/02/14,13:10,0.891,-,0.924,1.738,1.198,0.491,0.868,0.839,��쓌,10.5,��
2018/02/14,13:20,0.893,-,0.927,1.738,1.199,0.490,0.867,0.837,��,8.5,��
2018/02/14,13:30,0.893,-,0.925,1.739,1.199,0.489,0.869,0.837,��쓌,11.3,��
2018/02/14,13:40,0.892,-,0.927,1.737,1.199,0.490,0.869,0.836,��쓌,12.0,��
2018/02/14,13:50,0.892,-,0.928,1.735,1.200,0.492,0.869,0.835,��,10.0,��
2018/02/14,14:00,0.893,-,0.927,1.735,1.200,0.491,0.869,0.835,��쓌,11.9,��
2018/02/14,14:10,0.894,-,0.929,1.736,1.201,0.492,0.867,0.835,��,9.5,��
2018/02/14,14:20,0.891,-,0.929,1.738,1.201,0.491,0.868,0.835,��,10.2,��
2018/02/14,14:30,0.893,-,0.928,1.737,1.197,0.491,0.867,0.833,��,10.6,��
2018/02/14,14:40,0.892,-,0.928,1.737,1.199,0.492,0.868,0.834,��,11.1,��
2018/02/14,14:50,0.895,-,0.929,1.735,1.200,0.491,0.868,0.835,��쓌,9.3,��
2018/02/14,15:00,0.892,-,0.928,1.737,1.202,0.490,0.868,0.834,��,9.8,��
2018/02/14,15:10,0.891,1.485,0.929,1.738,1.198,0.491,0.870,0.835,��,12.4,��
2018/02/14,15:20,0.893,1.485,0.929,1.736,1.202,0.492,0.869,0.835,��,9.7,��
2018/02/14,15:30,0.894,1.486,0.928,1.734,1.201,0.492,0.868,0.834,��,10.5,��
2018/02/14,15:40,0.893,1.485,0.928,1.738,1.201,0.491,0.870,0.835,��,8.6,��
2018/02/14,15:50,0.894,1.493,0.928,1.736,1.201,0.489,0.870,0.838,��,8.1,��
2018/02/14,16:00,0.894,1.490,0.930,1.738,1.202,0.491,0.871,0.839,��,6.9,��
2018/02/14,16:10,0.895,1.486,0.927,1.739,1.198,0.490,0.871,0.838,��,6.3,��
2018/02/14,16:20,0.891,1.490,0.928,1.737,1.203,0.492,0.872,0.838,��,6.4,��
2018/02/14,16:30,0.891,1.492,0.931,1.736,1.198,0.489,0.871,0.839,��,7.9,��
2018/02/14,16:40,0.890,1.488,0.929,1.740,1.201,0.491,0.874,0.837,��,8.5,��
2018/02/14,16:50,0.893,1.487,0.930,1.738,1.201,0.490,0.872,0.836,��,8.4,��
2018/02/14,17:00,0.892,1.489,0.930,1.735,1.204,0.490,0.872,0.839,��,7.8,��
2018/02/14,17:10,0.894,1.489,0.929,1.735,1.203,0.492,0.871,0.837,��,7.8,��
2018/02/14,17:20,0.895,1.489,0.929,1.735,1.201,0.491,0.871,0.838,��,8.0,��
2018/02/14,17:30,0.892,1.488,0.929,1.735,1.203,0.490,0.870,0.838,��,8.6,��
2018/02/14,17:40,0.892,1.487,0.929,1.738,1.200,0.490,0.873,0.836,��,8.3,��
2018/02/14,17:50,0.891,1.487,0.929,1.737,1.201,0.491,0.871,0.837,��,8.6,��
2018/02/14,18:00,0.893,1.487,0.927,1.736,1.201,0.491,0.871,0.838,��,8.0,��
2018/02/14,18:10,0.891,1.488,0.931,1.734,1.202,0.491,0.872,0.837,��,7.2,��
2018/02/14,18:20,0.893,1.491,0.929,1.736,1.202,0.490,0.869,0.838,��,6.5,��
2018/02/14,18:30,0.892,1.489,0.930,1.737,1.203,0.490,0.870,0.838,��,6.0,��
2018/02/14,18:40,0.893,1.491,0.927,1.738,1.202,0.491,0.872,0.837,��쓌,4.9,��
2018/02/14,18:50,0.892,1.488,0.928,1.736,1.199,0.491,0.871,0.836,��쓌,4.1,��
2018/02/14,19:00,0.893,1.485,0.928,1.732,1.201,0.490,0.870,0.838,��쐼,3.4,��
2018/02/14,19:10,0.892,1.488,0.928,1.736,1.202,0.490,0.869,0.837,��쐼,2.6,��
2018/02/14,19:20,0.892,1.486,0.927,1.736,1.202,0.491,0.870,0.837,��쐼,3.1,��
2018/02/14,19:30,0.894,1.487,0.928,1.735,1.201,0.489,0.869,0.836,��,5.0,��
2018/02/14,19:40,0.893,1.487,0.928,1.735,1.201,0.489,0.870,0.838,��쐼,3.6,��
2018/02/14,19:50,0.893,1.489,0.928,1.735,1.199,0.489,0.868,0.837,�쐼,4.8,��
2018/02/14,20:00,0.894,1.485,0.929,1.736,1.201,0.490,0.871,0.839,�쐼,7.0,��
2018/02/14,20:10,0.891,1.487,0.928,1.736,1.200,0.490,0.868,0.839,���쐼,8.2,��
2018/02/14,20:20,0.892,1.489,0.929,1.737,1.204,0.490,0.870,0.836,���쐼,8.5,��
2018/02/14,20:30,0.892,1.488,0.931,1.739,1.201,0.492,0.869,0.837,�쐼,7.9,��
2018/02/14,20:40,0.892,1.488,0.926,1.736,1.203,0.489,0.870,0.839,���쐼,9.3,��
2018/02/14,20:50,0.893,1.490,0.929,1.737,1.200,0.490,0.871,0.838,���쐼,8.8,��
2018/02/14,21:00,0.893,1.487,0.929,1.736,1.201,0.491,0.870,0.837,���쐼,9.8,��
2018/02/14,21:10,0.893,1.490,0.927,1.734,1.201,0.490,0.871,0.837,���쐼,9.7,��
2018/02/14,21:20,0.895,1.486,0.929,1.739,1.203,0.492,0.872,0.839,�쐼,9.7,��
2018/02/14,21:30,0.892,1.486,0.928,1.737,1.200,0.491,0.873,0.837,�쐼,9.9,��
2018/02/14,21:40,0.893,1.488,0.929,1.738,1.201,0.490,0.871,0.837,�쐼,10.8,��
2018/02/14,21:50,0.893,1.488,0.930,1.738,1.201,0.490,0.871,0.837,�쐼,9.4,��
2018/02/14,22:00,0.893,1.485,0.930,1.737,1.203,0.491,0.870,0.839,�쐼,9.5,��
2018/02/14,22:10,0.893,1.487,0.929,1.737,1.204,0.492,0.871,0.838,�쐼,9.6,��
2018/02/14,22:20,0.892,1.489,0.928,1.737,1.202,0.492,0.870,0.839,�쐼,9.4,��
2018/02/14,22:30,0.893,1.488,0.930,1.737,1.202,0.489,0.872,0.839,�쐼,10.2,��
2018/02/14,22:40,0.892,1.488,0.930,1.738,1.204,0.491,0.873,0.837,�쐼,10.5,��
2018/02/14,22:50,0.890,1.488,0.929,1.737,1.203,0.490,0.871,0.841,�쐼,10.5,��
2018/02/14,23:00,0.893,1.488,0.926,1.740,1.204,0.492,0.870,0.838,�쐼,11.4,��
2018/02/14,23:10,0.893,1.489,0.929,1.740,1.204,0.493,0.873,0.840,��쐼,12.2,��
2018/02/14,23:20,0.892,1.486,0.928,1.737,1.204,0.492,0.873,0.839,�쐼,12.4,��
2018/02/14,23:30,0.893,1.489,0.928,1.738,1.204,0.493,0.871,0.840,�쐼,12.5,��
2018/02/14,23:40,0.894,1.489,0.931,1.742,1.203,0.492,0.871,0.838,�쐼,12.8,��
2018/02/14,23:50,0.892,1.488,0.930,1.739,1.204,0.492,0.873,0.837,��쐼,12.2,��
